Regional Weather Roundup
Issued by NWS

Home | Current Version | Previous Version | Text Only | Print | Product List | Glossary On
Versions: 1 2 3 4 5 6 7 8 9 10 11 12 13 14 15 16 17 18 19 20 21 22 23 24 25 26 27 28 29 30 31 32 33 34 35 36 37 38 39 40 41 42 43 44 45 46 47 48 49 50
000
ASUS43 KMKX 240700
RWRWI

WISCONSIN REGIONAL WEATHER ROUNDUP
NATIONAL WEATHER SERVICE MILWAUKEE/SULLIVAN WI
200 AM CDT MON APR 24 2017

NOTE: "FAIR" INDICATES FEW OR NO CLOUDS BELOW 12,000 FEET WITH NO
SIGNIFICANT WEATHER AND/OR OBSTRUCTIONS TO VISIBILITY.

WIZ001-002-006>008-014>016-023>028-240800-
NORTHWEST WISCONSIN

CITY           SKY/WX    TMP DP  RH WIND       PRES   REMARKS
SUPERIOR ARPT  CLOUDY    36  29  77 E20G26    30.02F WCI  25
ASHLAND        CLOUDY    35  27  72 NE14      30.04F WCI  26
HAYWARD        CLOUDY    36  29  75 NE7       29.96F WCI  30
SIREN          CLOUDY    39  32  77 NE6       29.93F WCI  34
CUMBERLAND     CLOUDY    43  36  75 SE10      29.92F
RICE LAKE      CLOUDY    44  38  79 E10       29.94S
CHETEK         CLOUDY    45  40  82 SE12G21   29.94S
LADYSMITH      CLOUDY    42  35  75 SE13G18   29.99R
EAU CLAIRE     NOT AVBL
MENOMONIE      PTCLDY    50  43  76 E13       29.92S
NEW RICHMOND   CLOUDY    45  37  75 E10       29.89F
OSCEOLA        MOCLDY    44  38  77 E8        29.92F
$$

WIZ003>005-009-010-017-018-240800-
NORTH CENTRAL WISCONSIN

CITY           SKY/WX    TMP DP  RH WIND       PRES   REMARKS
MANITOWISH WTR CLOUDY    33  26  76 SE8       30.01F WCI  26
ARBOR VITAE    CLOUDY    37  28  70 SE12G17   30.00F WCI  29
WOODRUFF       CLOUDY    37  28  70 SE12G17   30.00F WCI  29
RHINELANDER    PTCLDY    34  24  67 SE9       30.02F WCI  27
EAGLE RIVER    CLOUDY    32  16  53 SE9G16    30.03F WCI  24
LAND O LAKES   CLOUDY    31  21  66 E7        30.06F WCI  24
PHILLIPS       CLOUDY    37  31  82 SE9G17    29.99S WCI  30
TOMAHAWK       PTCLDY    33  27  77 SE7       30.03F WCI  27
MEDFORD        PTCLDY    35  29  79 E9G16     30.00F WCI  28
MERRILL        PTCLDY    35  25  69 SE7       30.05F WCI  29
$$

WIZ029-030-035-036-043>047-240800-
CENTRAL WISCONSIN

CITY           SKY/WX    TMP DP  RH WIND       PRES   REMARKS
WAUSAU         CLEAR     34  27  75 E9        30.03F WCI  27
MOSINEE        CLEAR     34  30  86 E8G17     30.05S WCI  27
MARSHFIELD     CLEAR     37  32  82 SE13      30.01F WCI  29
STEVENS POINT  CLEAR     34  28  77 E8        30.05F WCI  27
WAUPACA        CLEAR     39  28  65 NE7       30.07F WCI  34
WAUTOMA        CLEAR     37  31  78 NE5       30.05F WCI  33
WISC RAPIDS    PTCLDY    37  30  75 E6        30.04F WCI  32
CAMP DOUGLAS   NOT AVBL
$$

WIZ011>013-019>022-031-037>040-048>050-240800-
NORTHEAST WISCONSIN

CITY           SKY/WX    TMP DP  RH WIND       PRES   REMARKS
ANTIGO         CLEAR     31  24  73 E10       30.06F WCI  23
SHAWANO        CLEAR     37  29  72 E10       30.09F WCI  30
OCONTO         CLEAR     35  28  75 NE7       30.11F WCI  29
STURGEON BAY   CLEAR     35  28  75 E8        30.10F WCI  29
GREEN BAY      CLEAR     38  29  70 NE9       30.08F WCI  31
MANITOWOC      NOT AVBL
APPLETON       CLEAR     36  27  69 E12G17    30.06F WCI  27
CLINTONVILLE   CLEAR     36  28  75 E8        30.08F WCI  29
OSHKOSH        CLEAR     39  30  70 E10       30.05F WCI  32
$$

WIZ032>034-041-042-053>061-240800-
SOUTHWEST WISCONSIN

CITY           SKY/WX    TMP DP  RH WIND       PRES   REMARKS
LA CROSSE      CLEAR     54  42  64 E10       29.94S
SPARTA         CLEAR     45  41  85 E6        29.99R
VIROQUA        CLEAR     49  36  60 SE9       29.97S
BOSCOBEL       CLEAR     45  41  86 CALM      29.98R
PRAIRIE DU CHI CLEAR     49  37  63 E3        29.96S
PLATTEVILLE    CLEAR     51  36  55 SE6       29.99S
$$

WIZ056-057-062-063-064-067-068-240800-
SOUTH CENTRAL WISCONSIN

CITY           SKY/WX    TMP DP  RH WIND       PRES   REMARKS
REEDSBURG      CLEAR     41  38  90 E6        30.01F
BARABOO/DELLS  CLEAR     40  35  84 E9        30.02F WCI  33
LONE ROCK      NOT AVBL
MINERAL POINT  CLEAR     54  32  43 SE6       29.99S
MADISON        CLEAR     38  34  85 E7        30.02F WCI  33
MIDDLETON      CLEAR     44  39  83 E6        30.02S
WATERTOWN      CLEAR     36  36 100 E3        30.03F
MONROE         CLEAR     46  36  66 E5        30.00S
JANESVILLE     CLEAR     37  37 100 E3        30.01F
$$

WIZ051-052-058>065-066-070>072-240800-
SOUTHEAST WISCONSIN

CITY           SKY/WX    TMP DP  RH WIND       PRES   REMARKS
MILWAUKEE      PTCLDY    40  35  83 N3        30.04F
WAUKESHA       CLEAR     34  32  93 NE5       30.05F WCI  30
MILWAUKEE/TIMM CLEAR     36  32  87 NE5       30.06F WCI  32
RACINE         CLEAR     38  34  85 N8        30.06F WCI  32
KENOSHA        CLEAR     37  34  89 N3        30.04F
FOND DU LAC    CLEAR     38  29  70 NE8       30.06F WCI  32
SHEBOYGAN      CLEAR     37  31  78 NE10      30.06F WCI  30
WEST BEND      CLEAR     36  34  93 NE3       30.05F
JUNEAU         CLEAR     37  32  85 NE3       30.05F
$$

LSZ147-162-240800-
LAKE SUPERIOR

STATION/POSITION TIME  TEMP    WIND        PRES    WAVE
                       AIR SEA DIR/SP/G            HT/PER
                 (UTC) (F)     (DEG/KT/KT) (MB)    (FT/S)
DEVILS ISLAND    0600   35      70/ 23/ 25 1019.6F
SAXON HARBOR     0630   37      50/ 11/ 13 1017.6S
$$

LMZ867-665-643>646-240800-
LAKE MICHIGAN

STATION/POSITION TIME  TEMP    WIND        PRES    WAVE
                       AIR SEA DIR/SP/G            HT/PER
                 (UTC) (F)     (DEG/KT/KT) (MB)    (FT/S)
CHAMBERS ISLAND  0640   35      40/  9/ 13 1019.3F
N MID LAKE BUOY  0550   35 37   60/ 17/ 19 1021.4F   2/ 4
NORTHPORT PIER   0640   35      60/ 13/ 17 1020.0F
KEWAUNEE LAKESHO 0630   38      40/ 15/ 19 1018.6F
SHEBOYGAN LAKESH 0600   39      10/ 19/ 21 1018.7F
PORT WASHINGTON  0640   40     350/  5/ 10 1018.6F
MILWAUKEE LAKESH 0630   41     360/  8/ 10   N/A
S MID LAKE BUOY  0550   40 40  360/  8/ 10 1018.3R   3/ 6
KENOSHA   LAKESH 0600   41     360/  9/ 11 1017.6
$$

TC  - TEMPERATURE IN CELSIUS
VSB - VISIBILITY IN STATUTE MILES
WCI - WIND CHILL INDEX
HX  - HEAT INDEX




USA.gov is the U.S. government's official web portal to all federal, state and local government web resources and services.